Location: Tamazert
(32.6352°N, 5.2072°W)
Time: 23:24:51
(UTC+00:00)

Cosmos 1536 Rocket - Pass Details

Date: 22 May 2022
Orbit: 604 x 633 km, 82.5° (Epoch: 24 June)

Event Time Altitude Azimuth Distance (km) Brightness Sun altitude
Exits shadow 02:36:17 43° 90° (E) 879 4.5 -27.5°
Drops below altitude 10° 02:40:26 10° 21° (NNE) 1,997 7.1 -26.9°
Sets 02:42:44 0° 15° (NNE) 2,902 8.0 -26.7°
